SCP
0 0 0 0 0 0 0 0 0 0 0 0 0 0 0 0 0 0 0 0 0 0 0 0 0 0 0 0 0 0 0 0 0 0 0 0 0 0 0 0 0 0 0
0 0 0 0 0 0 0 0 0 0 0 0 0 0 0 0 0 0 0 0 0 0 0 0 0 0 0 0 0 0 0 0 0 0 0 0 0 0 0 0 0 0 0
0 0 0 0 0 0 0 0 0 0 0 0 0 0 0 0 0 0 0 0 0 0 0 0 0 0 0 0 0 0 0 0 0 0 0 0 0 0 0 0 0 0 0
0 0 0 0 0 0 0 0 0 0 0 0 0 0 0 0 0 0 0 0 0 0 0 0 0 0 0 0 0 0 0 0 0 0 0 0 0 0 0 0 0 0 0
0 0 0 0 0 0 0 0 0 0 0 0 0 0 0 0 0 0 0 0 0 0 0 0 0 0 0 0 0 0 0 0 0 0 0 0 0 0 0 0 0 0 0
0 0 0 0 0 0 0 0 0 0 0 0 0 0 0 0 0 0 0 0 0 0 0 0 0 0 0 0 0 0 0 0 0 0 0 0 0 0 0 0 0 0 0
0 0 0 0 0 0 0 0 0 0 0 0 0 0 0 0 0 0 0 0 0 0 0 0 0 0 0 0 0 0 0 0 0 0 0 0 0 0 0 0 0 0 0
0 0 0 0 0 0 0 0 0 0 0 0 0 0 0 0 0 0 0 0 0 0 0 0 0 0 0 0 0 0 0 0 0 0 0 0 0 0 0 0 0 0 0
0 0 0 0 0 0 0 0 0 0 0 0 0 0 0 0 0 0 0 0 0 0 0 0 0 0 0 0 0 0 0 0 0 0 0 0 0 -0 0 0 0 0 0
0 0 0 0 0 0 0 0 0 0 0 0 0 0 0 0 0 0 0 0 0 0 0 0 0 0 0 0 0 0 0 0 0 0 0 0 0 0 0 0 0 0 0
0 0 0 0 0 0 0 0 0 0 0 0 0 0 0 0 0 0 0 0 0 0 0 0 0 0 0 0 0 0 0 0 0 0 0 0 0 0 0 0 0 0 0
0 0 0 0 0 0 0 0 0 0 0 0 0 0 0 0 0 0 0 0 0 0 0 0 0 0 0 0 0 0 0 0 0 0 0 0 0 0 0 0 0 0 0
0 0 0 0 0 0 0 0 0 0 0 0 0 0 0 0 0 0 0 0 0 0 0 0 0 0 0 0 0 0 0 0 0 0 0 0 0 0 0 0 0 0 0
0 0 0 0 0 0 0 0 0 0 0 0 0 0 0 0 0 0 0 0 0 0 0 0 0 0 0 0 0 0 0 0 0 0 0 0 0 0 0 0 0 0 -0
0 0 0 0 0 0 0 0 0 0 0 0 0 0 0 0 0 0 0 0 0 0 0 0 0 0 0 0 0 0 0 0 0 0 0 0 0 0 0 0 0 0 -0
0 0 0 0 0 0 0 0 0 0 0 -0 -0 0 0 0 0 0 0 0 0 0 0 0 0 0 0 0 0 0 0 0 0 0 0 0 0 0 0 0 0 -0 -0
0 0 0 0 0 0 0 0 0 0 0 -0 -0 -0 -0 0 0 0 0 0 0 0 0 0 0 0 0 0 0 0 0 0 0 0 0 0 0 0 0 0 0 -0 -0
0 0 0 0 0 0 0 0 0 0 0 0 -0 -0 -0 -0 -0 0 0 0 0 0 0 0 0 0 0 0 0 0 0 0 0 0 0 0 0 0 0 0 -0 -0 -0
0 0 0 0 0 0 0 0 0 0 0 0 0 -0 0 -0 -0 0 0 -0 0 0 0 0 0 0 0 0 0 0 0 0 0 0 0 0 0 0 -0 -0 -0 -0 -0
0 0 0 0 0 0 0 0 0 0 0 0 0 0 0 0 0 0 0 0 0 0 0 0 0 0 0 0 0 0 0 0 0 0 -0 -0 -0 -0 -0 -0 -0 -0 -0
0 0 0 0 0 0 0 0 0 0 0 0 0 0 -0 0 0 0 0 0 0 0 0 0 0 0 0 0 -0 -0 -0 -0 -0 -0 -0 -0 -0 -0 -0 -0 -0 -0 0
0 0 0 0 0 0 0 0 0 0 0 0 0 0 -0 0 0 0 0 0 0 0 0 0 -0 -0 -0 -0 -0 -0 -0 -0 -0 -0 -0 -0 -0 -0 -0 -0 -0 -0 0
0 0 0 0 0 0 0 0 0 0 0 0 0 0 -0 -0 -0 0 0 0 0 -0 -0 -0 -0 -0 -0 -0 -0 -0 -0 -0 -0 -0 -0 -0 -0 -0 -0 -0 -0 0 0
0 0 0 0 0 0 0 0 0 0 0 0 0 0 0 0 -0 -0 -0 -0 -0 -0 -0 -0 -0 -0 -0 -0 -0 -0 -0 -0 -0 -0 -0 -0 -0 -0 -0 -0 0 0 0
0 0 0 0 0 0 0 0 0 0 0 0 0 0 0 0 0 -0 -0 -0 -0 -0 0 0 -0 -0 -0 -0 -0 -0 -0 0 -0 -0 -0 0 0 0 0 0 0 0 0
0 0 0 0 0 0 0 0 0 0 0 0 0 0 0 0 0 0 0 -0 0 0 0 0 0 0 0 -0 0 0 -0 0 0 0 0 0 0 0 0 0 0 0 0
Wind_Speed_500mb
76 77 76 75 76 73 73 74 76 79 80 83 86 83 78 73 62 62 66 70 64 60 57 58 59 58 58 57 56 55 54 52 55 52 52 49 50 48 45 47 49 52 55
76 76 75 78 79 75 75 75 75 78 79 81 83 79 73 70 65 61 66 63 61 60 52 53 50 48 48 46 45 45 44 41 43 45 43 43 48 44 45 46 44 48 51
73 75 78 80 78 77 75 76 76 76 77 76 78 76 74 72 70 66 67 61 62 59 50 47 44 41 40 37 36 36 35 35 37 40 41 40 42 39 42 45 43 44 45
73 75 77 75 76 76 75 76 76 75 75 76 74 73 73 69 67 69 65 59 63 57 47 40 37 36 36 33 31 33 32 35 38 43 46 42 40 38 40 42 42 38 40
74 76 76 73 73 73 74 76 78 77 76 76 76 72 68 64 64 64 61 60 65 52 43 49 49 45 41 43 37 35 38 42 40 40 41 42 41 35 33 33 41 42 47
79 79 77 75 78 76 76 79 82 82 79 76 74 73 71 67 64 63 57 59 61 61 54 52 41 44 31 29 38 38 37 37 38 39 39 33 28 30 29 37 41 44 50
82 80 79 79 81 83 85 85 89 91 85 79 74 73 68 65 60 59 52 50 47 58 43 38 30 28 28 33 39 38 38 36 35 37 39 35 31 36 35 35 35 38 45
83 83 82 83 87 87 91 94 97 99 91 81 76 70 67 62 55 54 44 40 38 41 42 31 27 27 37 37 39 40 40 39 39 41 46 47 43 32 25 26 32 41 49
80 83 85 81 88 85 93 98 104 108 89 80 74 69 63 59 51 48 45 40 30 18 17 17 26 37 37 35 37 36 34 34 33 25 22 24 24 23 25 29 36 47 58
76 82 77 78 65 87 101 110 109 90 78 72 74 63 56 52 44 43 42 39 32 25 28 30 31 35 34 33 35 32 32 23 18 18 19 21 20 23 25 29 35 43 46
70 77 85 87 96 100 95 82 71 71 69 74 66 60 52 44 41 39 37 37 36 31 24 18 18 20 22 23 22 23 23 20 18 24 27 30 31 33 37 36 34 37 43
81 97 92 86 81 78 69 64 67 66 68 62 60 55 58 46 42 41 39 31 26 32 27 21 18 13 11 12 15 18 17 20 28 33 39 43 47 45 44 38 39 40 42
96 93 95 89 81 63 60 65 82 61 58 55 55 63 59 53 55 49 34 29 31 31 28 29 28 21 16 11 14 19 26 33 35 40 42 42 43 41 39 39 42 45 50
93 95 93 84 71 60 69 76 55 58 61 56 60 65 64 60 62 48 41 42 42 31 34 36 29 21 22 21 20 23 28 33 38 39 40 42 44 41 39 41 48 54 57
92 92 82 79 65 83 69 58 56 53 51 58 62 59 59 59 50 45 43 45 45 46 27 28 27 27 29 27 25 30 31 35 38 37 38 42 45 47 48 50 56 59 60
87 85 80 73 81 70 68 66 50 44 46 52 49 46 45 46 44 42 39 33 35 38 23 8 12 16 20 25 29 34 38 41 41 42 41 44 48 51 55 56 56 52 54
80 81 83 73 69 68 66 62 70 65 52 43 39 37 38 41 39 36 34 31 37 37 26 20 21 23 27 31 38 43 45 44 44 44 46 46 48 52 54 56 53 49 49
79 76 69 67 66 63 61 57 57 58 66 65 48 40 38 37 37 34 29 33 35 32 33 33 35 36 38 40 42 43 42 43 45 46 47 48 50 51 54 53 49 47 43
74 69 65 64 59 54 52 53 53 55 58 65 58 43 39 31 37 26 26 32 35 32 29 28 30 32 35 37 38 39 42 44 46 47 48 49 50 50 54 49 45 36 35
68 65 60 58 56 55 54 55 54 57 58 61 56 51 45 53 47 49 37 31 31 32 31 32 32 34 36 36 37 39 43 46 47 46 46 48 49 49 48 43 36 34 37
67 64 59 59 58 57 56 55 54 57 62 60 57 51 44 47 46 39 35 31 29 30 33 35 37 38 39 41 42 45 49 50 49 47 47 46 43 43 41 39 33 32 34
62 61 63 62 59 57 54 53 55 57 58 60 61 58 49 44 43 42 38 33 30 30 32 38 40 41 42 44 46 48 50 51 48 44 43 40 39 40 38 32 29 30 34
61 63 62 59 57 56 56 55 57 58 59 59 60 60 56 50 46 43 40 37 33 32 32 36 41 43 43 45 46 49 51 48 42 38 37 36 36 34 30 29 29 32 36
61 61 61 59 58 58 59 61 62 63 62 60 60 58 56 53 50 46 41 38 38 37 37 38 40 43 43 42 42 42 42 40 36 33 31 32 29 27 28 29 29 32 37
60 59 58 59 60 62 65 66 67 66 65 63 62 58 56 54 52 49 44 42 40 38 38 37 38 40 41 41 39 37 34 31 30 27 27 28 27 24 25 26 28 32 33
57 56 56 57 60 62 65 68 68 67 67 65 61 58 58 58 54 49 45 44 43 43 40 36 33 35 37 36 32 27 25 24 23 21 21 21 19 19 20 23 26 29 30
Wind_Direction_500mb
324 323 322 320 320 320 320 322 323 323 323 323 321 316 313 314 307 298 301 298 288 270 275 272 267 261 253 247 244 244 243 241 244 247 254 261 266 271 274 272 271 272 273
323 323 322 321 321 319 318 319 323 324 325 323 323 318 314 312 307 304 301 295 293 277 272 269 264 259 249 242 238 236 239 242 248 256 260 265 269 273 275 273 272 272 275
325 325 323 320 319 318 316 318 321 324 324 324 325 323 319 313 309 306 307 300 294 279 266 265 260 253 248 241 239 241 243 247 251 259 266 271 273 275 277 278 279 278 277
323 321 321 320 319 318 317 317 320 323 325 325 324 323 321 318 311 303 299 295 295 274 260 253 247 244 241 238 247 253 258 261 263 264 266 270 271 276 278 286 284 285 284
322 321 319 317 317 318 319 320 321 322 323 324 326 325 323 321 320 314 303 293 295 265 252 253 246 240 236 246 245 250 249 249 251 256 263 271 274 278 281 289 295 298 295
321 319 319 317 316 316 320 322 324 323 322 322 323 326 325 321 322 314 300 287 286 277 261 268 255 237 225 251 255 258 255 252 254 258 266 266 273 278 293 296 297 302 303
319 317 318 318 315 315 318 321 325 324 321 318 319 325 324 323 322 320 308 295 287 273 255 262 251 247 242 247 260 261 254 250 255 264 268 265 260 280 287 289 293 295 294
322 322 322 320 319 312 310 316 321 323 318 316 316 319 323 323 320 322 315 312 288 270 265 250 243 264 273 263 260 257 256 256 255 251 254 261 268 278 285 298 305 299 294
323 320 320 315 316 305 309 314 317 320 315 314 314 316 319 319 321 317 318 315 312 300 280 254 254 265 265 262 262 261 257 255 258 265 267 273 279 285 290 287 280 289 292
318 318 322 319 305 307 311 314 314 315 315 313 312 312 314 318 323 317 317 306 294 277 259 258 263 264 264 259 257 259 261 266 274 276 272 272 276 277 273 275 287 292 291
319 314 314 308 306 307 311 314 315 317 318 314 314 313 316 322 321 321 321 314 298 285 270 266 271 262 261 256 248 260 265 275 288 290 291 285 284 289 294 294 292 288 284
313 316 321 323 323 324 321 320 318 316 315 317 318 324 318 324 327 320 322 308 292 286 270 246 239 256 264 258 246 246 260 254 260 267 273 281 285 285 292 284 286 290 286
322 326 327 328 330 328 325 315 318 318 319 321 323 318 319 327 325 320 320 328 306 273 288 267 256 254 247 229 234 248 262 267 272 276 280 283 285 289 291 289 290 290 292
326 327 328 330 329 324 313 318 323 319 318 316 318 316 317 320 319 323 326 322 324 306 281 264 259 243 253 262 267 272 278 278 283 287 289 287 287 291 289 289 294 299 302
328 329 330 330 320 324 327 322 316 306 312 311 312 313 311 313 316 319 315 313 318 310 280 254 245 254 257 249 264 275 282 284 287 285 282 282 287 290 292 294 295 300 299
330 332 330 324 328 331 329 328 331 317 316 312 308 306 308 310 312 310 315 317 318 301 308 279 244 244 254 262 270 279 285 289 289 287 287 288 291 294 295 297 299 301 298
334 335 329 333 334 333 334 331 330 332 329 328 325 318 317 318 318 316 315 314 302 298 293 292 282 272 269 272 278 282 285 285 282 283 285 289 291 293 296 297 302 302 298
338 335 336 338 338 337 336 335 327 334 334 340 343 331 325 324 324 325 324 286 283 283 285 282 280 280 280 279 278 278 278 279 282 285 288 291 291 294 294 295 298 297 295
337 340 343 341 341 338 336 338 340 340 338 333 337 342 344 344 337 327 302 307 307 301 293 286 283 279 278 277 278 278 281 283 283 283 285 287 289 290 289 293 292 286 287
341 346 345 342 342 343 343 341 341 343 338 338 341 340 343 347 323 317 318 313 308 304 299 293 289 286 287 288 289 290 287 284 285 288 287 284 285 285 286 285 277 280 292
345 344 345 346 346 344 343 342 342 342 335 340 341 341 332 317 315 320 319 316 309 301 297 292 289 288 289 289 289 287 287 289 290 289 286 285 283 279 274 271 267 283 296
343 345 347 346 345 344 343 344 344 338 337 338 340 340 336 330 328 324 320 315 308 302 298 294 292 291 290 289 289 289 289 288 290 291 286 281 275 272 270 260 265 282 296
346 345 344 344 344 343 344 344 344 340 339 337 338 337 338 335 332 328 323 319 314 307 300 295 293 292 289 288 287 287 286 288 288 282 279 274 270 268 258 251 265 286 298
345 342 341 342 343 343 343 344 343 343 340 338 339 337 337 335 332 328 322 317 310 306 301 297 295 294 294 290 286 282 280 279 274 271 271 272 269 259 244 253 273 292 302
341 339 339 341 343 344 343 343 342 342 340 340 339 337 336 334 332 328 323 318 313 306 300 296 295 295 293 291 287 281 275 268 268 269 265 265 264 250 246 264 287 299 305
339 338 339 340 343 343 343 342 341 342 341 341 339 338 337 335 333 330 327 323 319 313 307 301 295 293 292 289 284 274 266 262 259 260 262 261 252 243 257 280 295 301 310
Wind_Speed_850mb
76 77 76 75 76 73 73 74 76 79 80 83 86 83 78 73 62 62 66 70 64 60 57 58 59 58 58 57 56 55 54 52 55 52 52 49 50 48 45 47 49 52 55
76 76 75 78 79 75 75 75 75 78 79 81 83 79 73 70 65 61 66 63 61 60 52 53 50 48 48 46 45 45 44 41 43 45 43 43 48 44 45 46 44 48 51
73 75 78 80 78 77 75 76 76 76 77 76 78 76 74 72 70 66 67 61 62 59 50 47 44 41 40 37 36 36 35 35 37 40 41 40 42 39 42 45 43 44 45
73 75 77 75 76 76 75 76 76 75 75 76 74 73 73 69 67 69 65 59 63 57 47 40 37 36 36 33 31 33 32 35 38 43 46 42 40 38 40 42 42 38 40
74 76 76 73 73 73 74 76 78 77 76 76 76 72 68 64 64 64 61 60 65 52 43 49 49 45 41 43 37 35 38 42 40 40 41 42 41 35 33 33 41 42 47
79 79 77 75 78 76 76 79 82 82 79 76 74 73 71 67 64 63 57 59 61 61 54 52 41 44 31 29 38 38 37 37 38 39 39 33 28 30 29 37 41 44 50
82 80 79 79 81 83 85 85 89 91 85 79 74 73 68 65 60 59 52 50 47 58 43 38 30 28 28 33 39 38 38 36 35 37 39 35 31 36 35 35 35 38 45
83 83 82 83 87 87 91 94 97 99 91 81 76 70 67 62 55 54 44 40 38 41 42 31 27 27 37 37 39 40 40 39 39 41 46 47 43 32 25 26 32 41 49
80 83 85 81 88 85 93 98 104 108 89 80 74 69 63 59 51 48 45 40 30 18 17 17 26 37 37 35 37 36 34 34 33 25 22 24 24 23 25 29 36 47 58
76 82 77 78 65 87 101 110 109 90 78 72 74 63 56 52 44 43 42 39 32 25 28 30 31 35 34 33 35 32 32 23 18 18 19 21 20 23 25 29 35 43 46
70 77 85 87 96 100 95 82 71 71 69 74 66 60 52 44 41 39 37 37 36 31 24 18 18 20 22 23 22 23 23 20 18 24 27 30 31 33 37 36 34 37 43
81 97 92 86 81 78 69 64 67 66 68 62 60 55 58 46 42 41 39 31 26 32 27 21 18 13 11 12 15 18 17 20 28 33 39 43 47 45 44 38 39 40 42
96 93 95 89 81 63 60 65 82 61 58 55 55 63 59 53 55 49 34 29 31 31 28 29 28 21 16 11 14 19 26 33 35 40 42 42 43 41 39 39 42 45 50
93 95 93 84 71 60 69 76 55 58 61 56 60 65 64 60 62 48 41 42 42 31 34 36 29 21 22 21 20 23 28 33 38 39 40 42 44 41 39 41 48 54 57
92 92 82 79 65 83 69 58 56 53 51 58 62 59 59 59 50 45 43 45 45 46 27 28 27 27 29 27 25 30 31 35 38 37 38 42 45 47 48 50 56 59 60
87 85 80 73 81 70 68 66 50 44 46 52 49 46 45 46 44 42 39 33 35 38 23 8 12 16 20 25 29 34 38 41 41 42 41 44 48 51 55 56 56 52 54
80 81 83 73 69 68 66 62 70 65 52 43 39 37 38 41 39 36 34 31 37 37 26 20 21 23 27 31 38 43 45 44 44 44 46 46 48 52 54 56 53 49 49
79 76 69 67 66 63 61 57 57 58 66 65 48 40 38 37 37 34 29 33 35 32 33 33 35 36 38 40 42 43 42 43 45 46 47 48 50 51 54 53 49 47 43
74 69 65 64 59 54 52 53 53 55 58 65 58 43 39 31 37 26 26 32 35 32 29 28 30 32 35 37 38 39 42 44 46 47 48 49 50 50 54 49 45 36 35
68 65 60 58 56 55 54 55 54 57 58 61 56 51 45 53 47 49 37 31 31 32 31 32 32 34 36 36 37 39 43 46 47 46 46 48 49 49 48 43 36 34 37
67 64 59 59 58 57 56 55 54 57 62 60 57 51 44 47 46 39 35 31 29 30 33 35 37 38 39 41 42 45 49 50 49 47 47 46 43 43 41 39 33 32 34
62 61 63 62 59 57 54 53 55 57 58 60 61 58 49 44 43 42 38 33 30 30 32 38 40 41 42 44 46 48 50 51 48 44 43 40 39 40 38 32 29 30 34
61 63 62 59 57 56 56 55 57 58 59 59 60 60 56 50 46 43 40 37 33 32 32 36 41 43 43 45 46 49 51 48 42 38 37 36 36 34 30 29 29 32 36
61 61 61 59 58 58 59 61 62 63 62 60 60 58 56 53 50 46 41 38 38 37 37 38 40 43 43 42 42 42 42 40 36 33 31 32 29 27 28 29 29 32 37
60 59 58 59 60 62 65 66 67 66 65 63 62 58 56 54 52 49 44 42 40 38 38 37 38 40 41 41 39 37 34 31 30 27 27 28 27 24 25 26 28 32 33
57 56 56 57 60 62 65 68 68 67 67 65 61 58 58 58 54 49 45 44 43 43 40 36 33 35 37 36 32 27 25 24 23 21 21 21 19 19 20 23 26 29 30
Wind_Direction_850mb
324 323 322 320 320 320 320 322 323 323 323 323 321 316 313 314 307 298 301 298 288 270 275 272 267 261 253 247 244 244 243 241 244 247 254 261 266 271 274 272 271 272 273
323 323 322 321 321 319 318 319 323 324 325 323 323 318 314 312 307 304 301 295 293 277 272 269 264 259 249 242 238 236 239 242 248 256 260 265 269 273 275 273 272 272 275
325 325 323 320 319 318 316 318 321 324 324 324 325 323 319 313 309 306 307 300 294 279 266 265 260 253 248 241 239 241 243 247 251 259 266 271 273 275 277 278 279 278 277
323 321 321 320 319 318 317 317 320 323 325 325 324 323 321 318 311 303 299 295 295 274 260 253 247 244 241 238 247 253 258 261 263 264 266 270 271 276 278 286 284 285 284
322 321 319 317 317 318 319 320 321 322 323 324 326 325 323 321 320 314 303 293 295 265 252 253 246 240 236 246 245 250 249 249 251 256 263 271 274 278 281 289 295 298 295
321 319 319 317 316 316 320 322 324 323 322 322 323 326 325 321 322 314 300 287 286 277 261 268 255 237 225 251 255 258 255 252 254 258 266 266 273 278 293 296 297 302 303
319 317 318 318 315 315 318 321 325 324 321 318 319 325 324 323 322 320 308 295 287 273 255 262 251 247 242 247 260 261 254 250 255 264 268 265 260 280 287 289 293 295 294
322 322 322 320 319 312 310 316 321 323 318 316 316 319 323 323 320 322 315 312 288 270 265 250 243 264 273 263 260 257 256 256 255 251 254 261 268 278 285 298 305 299 294
323 320 320 315 316 305 309 314 317 320 315 314 314 316 319 319 321 317 318 315 312 300 280 254 254 265 265 262 262 261 257 255 258 265 267 273 279 285 290 287 280 289 292
318 318 322 319 305 307 311 314 314 315 315 313 312 312 314 318 323 317 317 306 294 277 259 258 263 264 264 259 257 259 261 266 274 276 272 272 276 277 273 275 287 292 291
319 314 314 308 306 307 311 314 315 317 318 314 314 313 316 322 321 321 321 314 298 285 270 266 271 262 261 256 248 260 265 275 288 290 291 285 284 289 294 294 292 288 284
313 316 321 323 323 324 321 320 318 316 315 317 318 324 318 324 327 320 322 308 292 286 270 246 239 256 264 258 246 246 260 254 260 267 273 281 285 285 292 284 286 290 286
322 326 327 328 330 328 325 315 318 318 319 321 323 318 319 327 325 320 320 328 306 273 288 267 256 254 247 229 234 248 262 267 272 276 280 283 285 289 291 289 290 290 292
326 327 328 330 329 324 313 318 323 319 318 316 318 316 317 320 319 323 326 322 324 306 281 264 259 243 253 262 267 272 278 278 283 287 289 287 287 291 289 289 294 299 302
328 329 330 330 320 324 327 322 316 306 312 311 312 313 311 313 316 319 315 313 318 310 280 254 245 254 257 249 264 275 282 284 287 285 282 282 287 290 292 294 295 300 299
330 332 330 324 328 331 329 328 331 317 316 312 308 306 308 310 312 310 315 317 318 301 308 279 244 244 254 262 270 279 285 289 289 287 287 288 291 294 295 297 299 301 298
334 335 329 333 334 333 334 331 330 332 329 328 325 318 317 318 318 316 315 314 302 298 293 292 282 272 269 272 278 282 285 285 282 283 285 289 291 293 296 297 302 302 298
338 335 336 338 338 337 336 335 327 334 334 340 343 331 325 324 324 325 324 286 283 283 285 282 280 280 280 279 278 278 278 279 282 285 288 291 291 294 294 295 298 297 295
337 340 343 341 341 338 336 338 340 340 338 333 337 342 344 344 337 327 302 307 307 301 293 286 283 279 278 277 278 278 281 283 283 283 285 287 289 290 289 293 292 286 287
341 346 345 342 342 343 343 341 341 343 338 338 341 340 343 347 323 317 318 313 308 304 299 293 289 286 287 288 289 290 287 284 285 288 287 284 285 285 286 285 277 280 292
345 344 345 346 346 344 343 342 342 342 335 340 341 341 332 317 315 320 319 316 309 301 297 292 289 288 289 289 289 287 287 289 290 289 286 285 283 279 274 271 267 283 296
343 345 347 346 345 344 343 344 344 338 337 338 340 340 336 330 328 324 320 315 308 302 298 294 292 291 290 289 289 289 289 288 290 291 286 281 275 272 270 260 265 282 296
346 345 344 344 344 343 344 344 344 340 339 337 338 337 338 335 332 328 323 319 314 307 300 295 293 292 289 288 287 287 286 288 288 282 279 274 270 268 258 251 265 286 298
345 342 341 342 343 343 343 344 343 343 340 338 339 337 337 335 332 328 322 317 310 306 301 297 295 294 294 290 286 282 280 279 274 271 271 272 269 259 244 253 273 292 302
341 339 339 341 343 344 343 343 342 342 340 340 339 337 336 334 332 328 323 318 313 306 300 296 295 295 293 291 287 281 275 268 268 269 265 265 264 250 246 264 287 299 305
339 338 339 340 343 343 343 342 341 342 341 341 339 338 337 335 333 330 327 323 319 313 307 301 295 293 292 289 284 274 266 262 259 260 262 261 252 243 257 280 295 301 310